Wind_Speed
86 86 84 82 81 85 86 82 79 72 69 69 70 69 68 66 65 65 65 64 71 77 85 89 92 95 94 91 85 83 81 79 75 72 72 71 69 68
75 72 72 75 75 70 67 65 62 63 65 64 63 63 62 62 63 61 62 69 77 84 89 93 95 96 91 85 81 80 79 75 71 70 68 66 64 62
63 62 57 54 56 57 56 58 60 61 60 59 57 55 57 58 57 61 67 75 81 86 92 94 94 91 85 81 77 76 74 70 69 68 66 64 61 58
44 45 47 51 51 54 56 55 54 55 56 54 54 56 53 55 61 68 75 81 85 88 91 92 91 86 80 76 75 73 69 69 68 66 64 60 57 54
44 47 48 51 51 50 50 50 51 50 47 50 51 50 54 60 70 77 81 84 88 89 91 91 88 82 76 73 72 69 68 67 65 63 59 54 52 50
47 48 47 44 45 47 48 47 45 44 45 44 49 53 61 67 73 78 84 85 90 91 92 91 85 78 74 73 70 67 67 65 61 57 54 50 48 45
43 40 40 42 43 43 42 41 40 40 42 48 53 59 67 73 74 76 79 85 90 91 90 88 82 75 72 71 68 67 65 61 56 52 50 47 44 42
39 40 41 40 37 37 35 37 37 44 47 52 57 64 69 71 73 76 80 82 89 92 89 83 76 71 70 68 67 66 61 56 52 49 48 44 42 38
39 39 35 36 36 35 33 39 42 46 51 57 61 63 65 69 72 77 84 88 90 90 88 79 72 68 67 66 66 63 57 53 49 47 44 42 38 35
32 32 33 33 34 35 37 42 45 51 56 55 60 65 68 72 76 80 86 91 93 90 86 77 70 67 65 65 64 59 53 50 47 44 42 40 36 33
28 31 31 33 37 41 44 47 51 52 55 60 66 70 73 75 79 84 89 92 95 92 84 75 68 66 64 63 61 56 52 48 45 44 40 38 35 32
27 30 35 41 43 43 47 50 54 60 64 67 71 74 76 80 83 85 90 91 93 91 81 72 68 67 65 63 60 56 52 49 45 42 40 37 35 32
34 38 40 42 44 47 50 55 60 65 67 70 74 77 80 83 86 88 91 91 92 87 78 70 65 63 63 62 59 55 50 47 45 42 39 36 34 32
38 43 43 47 49 52 55 58 63 68 71 73 75 79 83 86 88 89 88 89 89 84 75 68 63 63 62 60 59 56 52 48 45 42 40 38 35 32
41 44 46 49 52 55 59 61 66 70 74 74 77 80 81 81 85 86 87 88 87 81 74 66 62 61 61 60 59 56 51 47 44 41 37 34 32 30
43 46 48 50 54 58 61 64 69 73 74 74 75 73 79 83 86 88 88 87 85 79 73 64 60 60 59 58 57 55 51 48 44 41 39 35 32 30
46 47 49 54 57 59 63 66 69 69 68 68 70 76 81 85 90 90 86 85 83 78 72 63 59 58 57 57 56 55 53 49 45 41 39 35 32 30
48 50 53 55 58 61 65 65 63 65 66 69 74 80 85 87 91 90 85 82 81 76 70 63 58 56 55 54 55 54 52 50 46 41 38 35 33 31
53 54 55 57 61 67 65 63 63 67 71 73 78 84 86 87 91 90 83 80 79 74 69 62 56 54 53 52 53 53 52 48 46 42 39 36 34 31
54 58 59 59 62 69 68 65 68 70 73 75 79 83 85 86 89 88 79 77 76 72 68 61 56 53 51 50 51 53 51 49 47 43 41 37 34 31
58 59 60 63 67 73 68 67 69 72 73 75 78 83 84 85 89 86 77 74 74 70 66 60 55 51 50 48 47 50 50 48 46 43 40 36 34 32
61 60 64 68 71 72 67 68 70 72 72 75 79 82 84 86 88 83 74 72 71 67 65 60 54 50 48 47 46 48 49 48 47 44 41 39 36 34
63 65 69 70 72 68 68 69 72 73 74 76 79 81 85 85 88 79 71 70 68 65 64 60 53 48 47 46 45 45 48 48 46 46 43 41 39 36
Wind_Direction
284 285 287 287 287 287 288 291 296 299 302 303 305 305 305 306 308 309 309 307 309 311 311 310 310 311 311 312 310 308 307 306 304 301 299 297 295 291
286 286 286 285 286 291 293 296 299 302 303 303 303 304 306 308 310 311 311 310 310 311 312 312 313 313 314 313 311 311 310 309 307 306 304 301 298 294
286 285 290 292 292 297 299 301 302 302 301 302 304 305 308 312 315 315 314 314 313 314 313 314 315 316 316 315 314 314 313 312 311 310 307 305 303 300
290 291 293 297 299 300 301 301 301 303 306 308 310 313 317 319 317 316 316 316 317 317 317 318 319 320 319 318 317 317 316 316 316 313 310 308 306 303
294 294 296 298 301 300 300 303 306 308 309 311 313 315 318 318 317 319 320 320 320 321 321 323 323 322 320 320 321 321 320 319 318 315 312 310 308 307
295 296 299 302 300 303 307 309 311 311 311 313 316 319 319 319 321 323 323 324 324 324 325 325 325 325 324 325 325 324 324 322 319 317 315 314 312 310
296 299 302 302 306 309 311 313 311 313 314 320 322 322 324 324 326 325 325 325 326 326 327 328 328 327 327 328 327 327 327 324 323 321 321 319 317 313
301 303 306 310 312 314 316 316 319 319 322 324 321 323 327 327 327 327 328 329 329 330 330 331 330 330 330 330 330 330 329 328 327 326 325 324 321 317
305 308 313 315 317 320 322 322 323 323 321 322 328 329 332 331 330 329 329 330 331 332 332 334 332 332 333 333 333 333 333 331 330 329 328 327 325 322
312 315 317 320 320 322 323 322 322 321 324 331 332 334 333 331 331 332 332 332 333 335 335 335 334 336 337 336 335 336 335 334 335 333 332 331 330 326
318 319 320 322 322 321 322 322 324 326 330 331 332 333 331 332 333 333 333 334 336 337 337 336 336 338 339 338 338 339 339 339 339 337 335 334 333 330
321 320 321 321 322 323 326 328 329 328 330 332 331 331 331 332 333 333 333 335 337 339 338 338 339 340 342 342 342 343 343 342 340 339 339 338 337 334
318 320 320 321 322 322 324 326 328 328 330 329 329 331 332 332 333 333 334 336 338 340 340 340 340 341 342 343 345 346 345 343 343 341 341 341 339 336
312 316 316 317 319 321 323 325 326 326 327 328 329 331 331 332 334 335 335 337 339 342 342 342 341 343 344 345 348 348 347 345 345 343 342 342 342 341
309 312 314 314 317 320 322 324 325 325 327 328 329 331 334 336 336 336 337 339 340 344 343 343 343 344 345 347 350 350 348 346 345 345 344 342 343 341
309 311 311 314 317 322 322 323 324 326 327 329 332 334 336 337 339 338 338 339 341 344 344 344 344 344 346 347 350 351 350 349 348 347 347 346 345 346
306 308 310 313 319 320 322 323 327 328 331 333 334 334 335 338 340 340 339 339 342 345 345 344 344 344 346 347 351 352 353 351 350 349 349 349 348 348
311 312 314 318 321 322 323 325 328 331 333 333 333 334 335 337 339 341 338 339 342 345 346 344 344 344 346 348 352 353 353 353 351 351 351 352 351 350
306 306 309 313 319 323 322 323 326 328 329 332 332 333 335 336 338 340 337 339 342 345 346 344 344 344 345 347 352 354 355 354 354 354 353 353 353 354
303 303 308 310 314 320 318 319 323 326 327 330 330 332 333 335 337 339 337 339 341 344 345 344 343 343 345 347 351 354 355 356 356 357 356 355 356 356
301 304 306 308 312 315 316 317 321 323 326 327 330 332 333 334 337 338 336 339 340 343 344 344 342 343 344 347 349 353 355 357 357 359 359 360 360 0
300 301 303 308 311 313 314 317 321 323 325 327 329 332 334 334 336 337 337 338 339 342 343 343 342 342 343 346 348 351 354 356 359 1 3 4 3 4
296 299 304 307 309 309 312 316 320 323 324 326 327 329 333 334 336 337 337 337 338 340 341 342 341 341 342 345 348 350 352 355 357 360 3 5 6 6
Height
10607 10602 10595 10589 10582 10574 10568 10560 10551 10541 10536 10528 10517 10508 10500 10492 10483 10474 10463 10451 10441 10429 10414 10399 10383 10366 10350 10332 10316 10301 10287 10274 10260 10247 10235 10223 10213 10203
10590 10584 10578 10572 10567 10560 10554 10548 10540 10532 10526 10517 10508 10499 10489 10481 10473 10463 10453 10440 10427 10414 10397 10378 10360 10342 10326 10311 10295 10279 10263 10250 10237 10224 10212 10201 10190 10181
10575 10570 10565 10560 10555 10549 10543 10536 10529 10521 10513 10507 10499 10491 10482 10472 10461 10452 10441 10428 10412 10396 10377 10360 10342 10322 10305 10288 10274 10259 10243 10228 10214 10201 10190 10179 10170 10161
10564 10559 10555 10550 10545 10539 10533 10527 10520 10512 10502 10494 10486 10478 10469 10461 10451 10439 10427 10412 10395 10379 10359 10340 10322 10303 10286 10270 10255 10241 10225 10209 10195 10182 10170 10160 10150 10142
10556 10551 10546 10541 10536 10530 10524 10517 10510 10502 10494 10486 10478 10471 10463 10451 10435 10423 10409 10394 10376 10361 10340 10321 10302 10286 10270 10255 10240 10223 10207 10192 10179 10166 10155 10145 10135 10127
10546 10542 10537 10532 10527 10520 10513 10507 10501 10493 10486 10479 10472 10463 10451 10439 10428 10410 10389 10376 10357 10341 10324 10304 10287 10268 10251 10236 10222 10207 10192 10178 10165 10152 10141 10131 10122 10114
10536 10533 10529 10524 10518 10512 10505 10499 10493 10486 10478 10472 10462 10452 10440 10426 10413 10399 10385 10364 10346 10328 10311 10289 10270 10254 10238 10221 10207 10192 10178 10164 10152 10140 10130 10120 10111 10103
10529 10524 10520 10515 10510 10506 10500 10493 10486 10480 10472 10464 10455 10443 10431 10418 10404 10389 10374 10359 10339 10313 10295 10277 10258 10241 10226 10210 10195 10180 10166 10152 10140 10130 10119 10110 10101 10093
10522 10515 10512 10507 10502 10498 10493 10487 10481 10473 10464 10456 10446 10436 10422 10409 10396 10378 10358 10342 10324 10303 10280 10264 10245 10231 10216 10199 10184 10170 10156 10144 10132 10121 10112 10103 10094 10086
10515 10510 10506 10501 10496 10492 10487 10481 10473 10465 10457 10448 10437 10425 10413 10399 10383 10367 10348 10327 10308 10288 10266 10249 10234 10219 10205 10190 10175 10162 10149 10137 10125 10114 10105 10096 10088 10080
10510 10504 10499 10495 10490 10485 10477 10471 10465 10456 10448 10438 10426 10414 10401 10388 10372 10353 10334 10315 10293 10274 10257 10238 10224 10210 10197 10183 10167 10153 10141 10130 10119 10109 10100 10091 10083 10075
10505 10499 10493 10488 10482 10476 10468 10461 10453 10444 10435 10424 10414 10402 10388 10374 10359 10343 10325 10306 10289 10266 10247 10230 10214 10198 10187 10175 10160 10147 10134 10123 10114 10105 10096 10087 10078 10071
10496 10493 10488 10481 10474 10468 10460 10452 10444 10433 10424 10414 10402 10389 10375 10361 10346 10331 10314 10296 10277 10259 10240 10223 10209 10197 10183 10168 10154 10142 10132 10120 10109 10100 10092 10083 10075 10067
10489 10484 10478 10472 10466 10459 10451 10444 10435 10425 10415 10404 10391 10378 10364 10351 10336 10320 10304 10287 10270 10252 10234 10218 10204 10190 10177 10165 10151 10138 10126 10116 10106 10096 10086 10078 10070 10064
10482 10476 10470 10464 10457 10450 10443 10435 10427 10416 10405 10393 10381 10370 10357 10343 10328 10312 10295 10278 10261 10245 10228 10213 10199 10186 10174 10161 10147 10135 10124 10113 10103 10094 10086 10078 10070 10062
10474 10469 10462 10456 10450 10443 10436 10427 10417 10406 10395 10384 10373 10361 10350 10336 10319 10302 10285 10269 10254 10238 10222 10207 10195 10183 10171 10158 10146 10134 10122 10111 10101 10091 10083 10075 10067 10060
10465 10460 10454 10448 10442 10435 10427 10418 10408 10398 10387 10377 10366 10354 10341 10327 10311 10294 10277 10261 10246 10232 10216 10203 10192 10179 10168 10156 10144 10132 10120 10109 10100 10090 10081 10073 10066 10059
10456 10450 10444 10439 10432 10425 10416 10409 10399 10390 10380 10369 10358 10345 10332 10318 10303 10287 10270 10255 10240 10227 10213 10200 10188 10176 10166 10154 10142 10131 10119 10108 10098 10089 10080 10072 10064 10058
10446 10440 10435 10430 10422 10415 10407 10399 10391 10382 10372 10361 10349 10337 10324 10311 10296 10280 10263 10249 10235 10222 10209 10197 10185 10175 10164 10153 10142 10130 10119 10109 10098 10088 10079 10071 10064 10057
10435 10429 10424 10419 10412 10406 10398 10390 10382 10374 10364 10354 10342 10330 10317 10304 10289 10274 10258 10244 10230 10218 10206 10194 10183 10173 10162 10151 10141 10129 10119 10109 10099 10088 10079 10070 10063 10056
10423 10418 10414 10408 10402 10395 10388 10380 10373 10364 10355 10345 10334 10321 10309 10296 10282 10267 10252 10238 10226 10214 10203 10192 10180 10170 10159 10150 10141 10131 10120 10111 10101 10091 10081 10072 10064 10057
10412 10408 10403 10398 10392 10384 10378 10370 10362 10354 10344 10335 10325 10313 10301 10288 10275 10260 10246 10233 10221 10210 10198 10188 10178 10167 10158 10148 10139 10130 10120 10110 10101 10092 10083 10074 10066 10059
10400 10396 10392 10387 10381 10373 10366 10359 10351 10343 10334 10325 10316 10305 10294 10281 10268 10253 10239 10227 10216 10205 10195 10185 10174 10165 10155 10146 10138 10129 10120 10111 10102 10093 10085 10076 10068 10061